Location: Monroe
(41.9160°N, 83.3980°W)
Time: 02:29:29
(UTC-04:00)

Amateur Radio Satellites - All Passes

Search period start: 27 August 2016 01:59
Search period end: 28 August 2016 01:59
Location: Monroe, 41.9160°N, 83.3980°W

Satellite Date Start Highest point End Downlink Frequencies (MHz)
Time Altitude Azimuth
DUCHIFAT 1 27 Aug 02:02:57 02:06:41 31° 290° (WNW) 02:10:23 145.980
QB50P2 27 Aug 02:04:24 02:07:55 26° 292° (WNW) 02:11:25 145.880/145.840
ITUPSAT 1 27 Aug 02:05:36 02:09:02 20° 64° (ENE) 02:12:28 437.325
POLYITAN 1 27 Aug 02:06:56 02:10:26 26° 292° (WNW) 02:13:53 437.675
JAS-2 27 Aug 02:07:11 02:13:55 80° 287° (WNW) 02:21:27 435.910
RS-15 27 Aug 02:08:25 02:19:34 60° 113° (ESE) 02:31:19 29.354- 29.394
UKube-1 27 Aug 02:12:15 02:14:56 16° 268° (W) 02:17:38 .
NANOSAT C BR1 27 Aug 02:16:40 02:19:55 22° 293° (WNW) 02:23:09 145.865
SWISSCUBE 27 Aug 02:37:52 02:42:23 45° 70° (ENE) 02:46:55 437.505
BEESAT 27 Aug 02:54:55 02:59:35 61° 73° (ENE) 03:04:18 436.000
SO-50 27 Aug 02:56:05 02:58:36 14° 324° (NW) 03:01:08 436.795
Gurwin Techsat 1B 27 Aug 03:01:00 03:05:47 33° 96° (E) 03:10:32 435.225
BUGSAT 1 27 Aug 03:02:51 03:05:34 17° 295° (WNW) 03:08:15 437.445
ITAMSAT 1 27 Aug 03:12:29 03:14:16 12° 89° (E) 03:16:03 435.822/435.867
MOZHAYETS 4 27 Aug 03:18:24 03:21:06 16° 63° (ENE) 03:23:47
KKS-1 27 Aug 03:19:49 03:21:52 13° 61° (ENE) 03:23:54 437.445
PHONESAT 2.4 27 Aug 03:26:34 03:29:14 30° 160° (SSE) 03:31:55 2401.200-2431.200
Oscar 19 27 Aug 03:37:01 03:42:06 54° 288° (WNW) 03:47:09 437.125/150
ITUPSAT 1 27 Aug 03:41:57 03:46:31 46° 261° (W) 03:51:07 437.325
JAS-2 27 Aug 03:54:18 03:58:09 16° 302° (WNW) 04:02:12 435.910
STARS 27 Aug 03:57:24 04:00:03 16° 63° (ENE) 04:02:42 437.465
AO-7 27 Aug 04:03:43 04:10:00 23° 93° (E) 04:16:13 29.400- 29.500
SWISSCUBE 27 Aug 04:17:01 04:20:23 19° 267° (W) 04:23:47 437.505
RS-15 27 Aug 04:21:19 04:32:29 48° 318° (NW) 04:44:14 29.354- 29.394
BEESAT 27 Aug 04:35:14 04:37:46 14° 269° (W) 04:40:19 436.000
CUBESAT XI-V 27 Aug 04:36:40 04:38:51 13° 62° (ENE) 04:41:04 437.345
Gurwin Techsat 1B 27 Aug 04:40:58 04:45:40 32° 293° (WNW) 04:50:19 435.225
ITAMSAT 1 27 Aug 04:49:09 04:54:21 83° 285° (WNW) 04:59:32 435.822/435.867
MOZHAYETS 4 27 Aug 04:53:19 04:57:48 56° 260° (W) 05:02:18
KKS-1 27 Aug 04:53:23 04:57:51 69° 258° (WSW) 05:02:21 437.445
PHONESAT 2.4 27 Aug 05:02:24 05:05:22 65° 177° (S) 05:08:21 2401.200-2431.200
AO-85 27 Aug 05:12:53 05:15:47 15° 108° (ESE) 05:18:38 145.980
Cosmos 2491 27 Aug 05:13:58 05:21:39 32° 69° (ENE) 05:29:17 435.465 / 435.565
STARS 27 Aug 05:31:37 05:35:57 54° 259° (W) 05:40:20 437.465
AO-7 27 Aug 05:55:13 06:03:31 76° 291° (WNW) 06:11:46 29.400- 29.500
HORYU 2 27 Aug 06:06:42 06:10:40 31° 97° (E) 06:14:36 437.375
BRITE-PL 27 Aug 06:09:18 06:13:20 19° 90° (E) 06:17:17 437.365/2234.400
CUBESAT XI-V 27 Aug 06:11:04 06:15:39 69° 259° (WSW) 06:20:16 437.345
YUBILEINY 27 Aug 06:28:51 06:36:40 37° 85° (E) 06:44:28 435.215
ITAMSAT 1 27 Aug 06:31:21 06:32:59 11° 303° (WNW) 06:34:37 435.822/435.867
PHONESAT 2.4 27 Aug 06:38:42 06:41:37 47° 192° (SSW) 06:44:30 2401.200-2431.200
RS-15 27 Aug 06:39:46 06:49:09 25° 351° (N) 06:58:44 29.354- 29.394
AO-85 27 Aug 06:50:26 06:55:45 78° 304° (WNW) 07:00:47 145.980
LilacSat-2 27 Aug 06:52:21 06:54:28 14° 92° (E) 06:56:35 437.200
Cosmos 2491 27 Aug 07:10:22 07:18:58 59° 269° (W) 07:27:33 435.465 / 435.565
Cosmos 2504 27 Aug 07:11:19 07:17:33 24° 82° (E) 07:23:29 435.465 / 435.565
Cubesat XI-IV 27 Aug 07:12:04 07:16:40 29° 95° (E) 07:21:13 437.490
STRAND 1 27 Aug 07:13:46 07:18:16 32° 67° (ENE) 07:22:47 437.568
CUTE-I 27 Aug 07:23:56 07:28:52 37° 98° (E) 07:33:46 437.470
GOMX 1 27 Aug 07:26:28 07:31:39 43° 97° (E) 07:36:34 467.674
NOAA 15 27 Aug 07:27:23 07:32:35 51° 100° (E) 07:37:45 137.62
DOVE 4 27 Aug 07:37:20 07:41:26 24° 92° (E) 07:45:19 437.250
HORYU 2 27 Aug 07:43:30 07:47:04 24° 293° (WNW) 07:50:38 437.375
BRITE-PL 27 Aug 07:46:33 07:52:11 62° 286° (WNW) 07:57:42 437.365/2234.400
AO-7 27 Aug 07:49:44 07:54:59 19° 312° (NW) 08:00:12 29.400- 29.500
NOAA 18 27 Aug 07:57:54 08:03:23 66° 103° (ESE) 08:08:47 137.9125
SO-50 27 Aug 08:04:17 08:07:23 17° 39° (NE) 08:10:26 436.795
PHONESAT 2.4 27 Aug 08:15:45 08:17:33 15° 208° (SSW) 08:19:21 2401.200-2431.200
CINEMA 3 27 Aug 08:23:33 08:26:37 18° 91° (E) 08:29:35 145.822/145.860
YUBILEINY 27 Aug 08:24:41 08:33:10 50° 285° (WNW) 08:41:43 435.215
LilacSat-2 27 Aug 08:25:26 08:28:57 37° 288° (WNW) 08:32:26 437.200
AO-85 27 Aug 08:33:55 08:36:57 15° 322° (NW) 08:39:52 145.980
HO-68 27 Aug 08:41:26 08:47:33 30° 95° (E) 08:53:39 435.675
Cubesat XI-IV 27 Aug 08:51:55 08:56:46 37° 292° (WNW) 09:01:35 437.490
STRAND 1 27 Aug 08:52:56 08:57:24 31° 264° (W) 09:01:54 437.568
RS-15 27 Aug 08:56:28 09:07:04 31° 26° (NNE) 09:17:38 29.354- 29.394
SEEDS 27 Aug 08:58:27 09:01:43 22° 94° (E) 09:05:00 437.485
Cosmos 2504 27 Aug 09:01:45 09:10:14 71° 280° (W) 09:18:09 435.465 / 435.565
CUTE-I 27 Aug 09:04:15 09:08:45 29° 294° (WNW) 09:13:15 437.470
GOMX 1 27 Aug 09:05:00 09:09:25 26° 295° (WNW) 09:13:42 467.674
NOAA 15 27 Aug 09:08:00 09:12:00 22° 297° (WNW) 09:15:58 137.62
DOVE 4 27 Aug 09:14:31 09:19:14 39° 291° (WNW) 09:23:42 437.250
CANX-2 27 Aug 09:18:01 09:22:13 60° 100° (E) 09:26:25 2200.000
ISS 27 Aug 09:19:14 09:22:03 27° 136° (SE) 09:24:52 145.825
PRISM 27 Aug 09:22:12 09:26:16 71° 74° (ENE) 09:30:22 437.425
CUTE 1.7 + AOD 2 27 Aug 09:24:15 09:28:27 61° 100° (E) 09:32:39 437.475
AAUSAT CUBESAT 2 27 Aug 09:31:09 09:34:42 27° 95° (E) 09:38:16 437.432
TIGRISAT 27 Aug 09:35:43 09:36:49 11° 61° (ENE) 09:37:56 435.000
COMPASS 1 27 Aug 09:38:18 09:42:16 41° 98° (E) 09:46:14 437.405
NOAA 18 27 Aug 09:39:50 09:43:28 18° 300° (WNW) 09:47:06 137.9125
AIST 1 27 Aug 09:41:44 09:45:30 30° 90° (E) 09:49:21
SO-50 27 Aug 09:43:49 09:48:25 74° 238° (WSW) 09:52:52 436.795
CINEMA 3 27 Aug 09:59:42 10:04:00 42° 289° (WNW) 10:08:07 145.822/145.860
UNISAT 6 27 Aug 10:01:30 10:04:57 21° 66° (ENE) 10:08:22 437.425
Oscar 11 27 Aug 10:08:21 10:12:04 28° 95° (E) 10:15:46 145.826/435.025
FUNcube-1 27 Aug 10:15:03 10:18:41 29° 96° (E) 10:22:18 145.935
UWE-3 27 Aug 10:20:04 10:24:14 59° 101° (E) 10:28:18 435.000/436.395/437.385
CUBEBUG 2 27 Aug 10:21:13 10:25:29 87° 289° (WNW) 10:29:39 437.445
HO-68 27 Aug 10:28:37 10:35:33 54° 293° (WNW) 10:42:26 435.675
SEEDS 27 Aug 10:33:44 10:37:28 31° 290° (WNW) 10:41:11 437.485
CUSAT 1 27 Aug 10:35:08 10:41:05 40° 75° (ENE) 10:48:07 437.405
ZACube-1 27 Aug 10:35:54 10:40:00 56° 100° (E) 10:44:04 437.345
ANTELSAT 27 Aug 10:37:21 10:41:46 48° 72° (ENE) 10:46:07 437.575/2403.000
BEESAT 2 27 Aug 10:39:41 10:43:08 30° 115° (ESE) 10:46:38 435.950
POPSAT HIP 1 27 Aug 10:54:16 10:55:05 10° 61° (ENE) 10:55:54 437.405
ISS 27 Aug 10:55:17 10:58:25 39° 333° (NNW) 11:01:32 145.825
CANX-2 27 Aug 10:55:38 10:57:35 13° 297° (WNW) 10:59:31 2200.000
BEESAT 3 27 Aug 10:58:22 11:02:16 84° 303° (WNW) 11:06:14 437.485
Cosmos 2504 27 Aug 11:01:10 11:05:01 14° 300° (WNW) 11:08:46 435.465 / 435.565
CUTE 1.7 + AOD 2 27 Aug 11:01:54 11:03:47 13° 297° (WNW) 11:05:40 437.475
AAUSAT CUBESAT 2 27 Aug 11:06:40 11:10:05 25° 291° (WNW) 11:13:31 437.432
TIGRISAT 27 Aug 11:08:13 11:12:51 85° 258° (WSW) 11:17:24 435.000
RS-15 27 Aug 11:09:34 11:22:02 77° 54° (NE) 11:34:14 29.354- 29.394
DELFI C3 27 Aug 11:14:14 11:18:14 64° 101° (E) 11:22:12 145.870
COMPASS 1 27 Aug 11:14:45 11:17:30 17° 294° (WNW) 11:20:16 437.405
AIST 1 27 Aug 11:19:40 11:23:07 23° 287° (WNW) 11:26:37
DUCHIFAT 1 27 Aug 11:20:17 11:23:11 18° 65° (ENE) 11:26:04 145.980
QB50P2 27 Aug 11:21:43 11:25:02 22° 67° (ENE) 11:28:22 145.880/145.840
POLYITAN 1 27 Aug 11:24:13 11:27:34 23° 67° (ENE) 11:30:55 437.675
DANDE 27 Aug 11:26:51 11:31:50 39° 77° (ENE) 11:38:11 436.750
HUMSAT D 27 Aug 11:26:51 11:30:44 40° 98° (E) 11:34:36 437.325/437.525
NANOSAT C BR1 27 Aug 11:33:05 11:36:37 26° 68° (ENE) 11:40:10 145.865
UNISAT 6 27 Aug 11:37:05 11:41:25 40° 262° (W) 11:45:42 437.425
Oscar 11 27 Aug 11:44:32 11:48:07 26° 292° (WNW) 11:51:41 145.826/435.025
M-CUBED/EXP-1 PRIME 27 Aug 11:46:33 11:48:36 13° 95° (E) 11:50:34 437.505
FUNcube-1 27 Aug 11:51:33 11:54:48 23° 293° (WNW) 11:58:02 145.935
PCSat 27 Aug 11:53:02 11:57:07 22° 107° (ESE) 12:01:13 145.827
UWE-3 27 Aug 11:58:20 12:00:10 13° 298° (WNW) 12:01:59 435.000/436.395/437.385
ESTCUBE 1 27 Aug 12:00:19 12:03:13 17° 92° (E) 12:06:08 437.505/2401.250
Cosmos 2499 27 Aug 12:09:44 12:16:17 28° 85° (E) 12:22:28 435.465 / 435.565
AISAT 27 Aug 12:11:46 12:13:19 12° 90° (E) 12:14:53 437.250
ZACube-1 27 Aug 12:13:52 12:15:49 13° 297° (WNW) 12:17:46 437.345
ANTELSAT 27 Aug 12:15:41 12:18:42 17° 268° (W) 12:21:40 437.575/2403.000
QB50P1 27 Aug 12:15:58 12:20:15 82° 76° (ENE) 12:24:32 145.935-145.965
BUGSAT 1 27 Aug 12:16:26 12:20:10 31° 70° (ENE) 12:23:56 437.445
CUSAT 1 27 Aug 12:17:08 12:23:03 39° 267° (W) 12:29:59 437.405
BEESAT 2 27 Aug 12:17:35 12:20:57 26° 313° (NW) 12:24:21 435.950
HO-68 27 Aug 12:20:09 12:21:41 11° 313° (NW) 12:23:12 435.675
JAS-2 27 Aug 12:21:05 12:25:58 43° 68° (ENE) 12:31:10 435.910
POPSAT HIP 1 27 Aug 12:25:56 12:30:14 79° 258° (WSW) 12:34:31 437.405
ISS 27 Aug 12:33:23 12:35:33 16° 352° (N) 12:37:42 145.825
BEESAT 3 27 Aug 12:39:13 12:40:35 11° 322° (NW) 12:41:58 437.485
GONETS M04 27 Aug 12:39:20 12:47:48 58° 91° (E) 12:56:21
AIST 2 27 Aug 12:47:09 12:50:40 28° 114° (ESE) 12:54:13 435.215
DELFI C3 27 Aug 12:51:24 12:52:32 11° 297° (WNW) 12:53:39 145.870
DUCHIFAT 1 27 Aug 12:54:32 12:58:33 41° 261° (W) 13:02:36 145.980
QB50P2 27 Aug 12:56:48 13:00:39 33° 263° (W) 13:04:32 145.880/145.840
VELOX 1 27 Aug 12:57:05 13:01:11 34° 97° (E) 13:05:14 145.980
POLYITAN 1 27 Aug 12:59:20 13:03:11 32° 263° (W) 13:07:03 437.675
CUBEBUG 1 27 Aug 13:00:11 13:04:28 46° 99° (E) 13:08:43 437.445
HUMSAT D 27 Aug 13:03:25 13:06:02 17° 295° (WNW) 13:08:39 437.325/437.525
NANOSAT C BR1 27 Aug 13:08:36 13:12:16 27° 264° (W) 13:15:56 145.865
DANDE 27 Aug 13:09:43 13:14:31 32° 266° (W) 13:20:29 436.750
AUBIESAT-1 27 Aug 13:14:03 13:18:09 69° 290° (WNW) 13:21:53 437.475
Oscar 19 27 Aug 13:15:46 13:20:08 29° 66° (ENE) 13:24:33 437.125/150
DX 1 27 Aug 13:15:50 13:19:54 36° 98° (E) 13:23:56 434.975-435.025
M-CUBED/EXP-1 PRIME 27 Aug 13:19:27 13:23:30 48° 293° (WNW) 13:27:12 437.505
SPROUT 27 Aug 13:20:01 13:23:51 31° 97° (E) 13:27:38 437.525
RS-15 27 Aug 13:23:11 13:33:25 33° 257° (WSW) 13:43:31 29.354- 29.394
PCSat 27 Aug 13:34:49 13:40:06 53° 304° (NW) 13:45:26 145.827
ESTCUBE 1 27 Aug 13:35:55 13:40:17 48° 288° (WNW) 13:44:38 437.505/2401.250
TISAT 1 27 Aug 13:42:41 13:43:56 11° 90° (E) 13:45:11 437.305
AO-85 27 Aug 13:43:21 13:45:44 14° 37° (NE) 13:48:01 145.980
O/OREOS (USA 219) 27 Aug 13:45:30 13:47:45 14° 98° (E) 13:50:01 437.305
AISAT 27 Aug 13:45:48 13:50:15 67° 285° (WNW) 13:54:38 437.250
50 SAT 27 Aug 13:45:56 13:49:31 55° 286° (WNW) 13:53:05 437.505
BUGSAT 1 27 Aug 13:52:10 13:55:33 23° 265° (W) 13:58:58 437.445
UKube-1 27 Aug 13:56:52 14:01:15 81° 105° (ESE) 14:05:34 .
Cosmos 2499 27 Aug 14:00:53 14:08:56 59° 282° (WNW) 14:16:25 435.465 / 435.565
JAS-2 27 Aug 14:07:20 14:11:22 23° 268° (W) 14:15:35 435.910
ISS 27 Aug 14:10:35 14:12:57 18° 13° (NNE) 14:15:20 145.825
Gurwin Techsat 1B 27 Aug 14:22:15 14:27:24 54° 71° (ENE) 14:32:35 435.225
AIST 2 27 Aug 14:25:28 14:29:05 29° 312° (NW) 14:32:45 435.215
ITAMSAT 1 27 Aug 14:29:50 14:33:38 21° 63° (ENE) 14:37:24 435.822/435.867
VELOX 1 27 Aug 14:33:55 14:37:27 23° 294° (WNW) 14:40:57 145.980
CUBEBUG 1 27 Aug 14:37:26 14:40:23 18° 296° (WNW) 14:43:19 437.445
GONETS M04 27 Aug 14:37:26 14:45:03 32° 291° (WNW) 14:52:46
SWISSCUBE 27 Aug 14:40:13 14:41:24 11° 89° (E) 14:42:36 437.505
DX 1 27 Aug 14:52:32 14:55:51 21° 294° (WNW) 14:59:10 434.975-435.025
Oscar 19 27 Aug 14:54:36 14:59:19 36° 263° (W) 15:04:05 437.125/150
BEESAT 27 Aug 14:56:04 14:58:45 15° 91° (E) 15:01:26 436.000
SPROUT 27 Aug 14:56:13 14:59:38 23° 293° (WNW) 15:03:01 437.525
AO-7 27 Aug 15:02:54 15:10:14 36° 58° (ENE) 15:17:34 29.400- 29.500
TISAT 1 27 Aug 15:15:49 15:20:00 62° 286° (WNW) 15:24:07 437.305
O/OREOS (USA 219) 27 Aug 15:22:11 15:26:37 57° 296° (WNW) 15:31:05 437.305
AO-85 27 Aug 15:22:33 15:26:51 82° 236° (SW) 15:30:48 145.980
PCSat 27 Aug 15:23:03 15:24:47 11° 326° (NW) 15:26:30 145.827
UKube-1 27 Aug 15:35:46 15:36:37 10° 300° (WNW) 15:37:27 .
ITUPSAT 1 27 Aug 15:41:51 15:46:24 42° 99° (E) 15:50:55 437.325
ISS 27 Aug 15:46:40 15:49:56 60° 32° (NNE) 15:53:10 145.825
Cosmos 2499 27 Aug 16:03:42 16:03:42 10° 303° (WNW) 16:03:43 435.465 / 435.565
Gurwin Techsat 1B 27 Aug 16:03:56 16:07:41 19° 268° (W) 16:11:26 435.225
ITAMSAT 1 27 Aug 16:07:39 16:12:42 52° 259° (W) 16:17:46 435.822/435.867
SWISSCUBE 27 Aug 16:14:58 16:19:45 79° 284° (WNW) 16:24:30 437.505
BEESAT 27 Aug 16:32:13 16:36:54 59° 288° (WNW) 16:41:34 436.000
YUBILEINY 27 Aug 16:38:57 16:44:36 18° 60° (ENE) 16:50:13 435.215
KKS-1 27 Aug 16:44:38 16:48:06 22° 94° (E) 16:51:32 437.445
MOZHAYETS 4 27 Aug 16:48:02 16:52:07 32° 96° (E) 16:56:13
AO-7 27 Aug 16:54:29 17:02:39 56° 257° (WSW) 17:10:51 29.400- 29.500
HORYU 2 27 Aug 17:04:57 17:08:54 32° 68° (ENE) 17:12:50 437.375
NOAA 15 27 Aug 17:12:08 17:14:05 12° 57° (ENE) 17:16:01 137.62
ITUPSAT 1 27 Aug 17:20:20 17:23:57 22° 295° (WNW) 17:27:33 437.325
BRITE-PL 27 Aug 17:20:39 17:24:13 20° 62° (ENE) 17:27:58 437.365/2234.400
STARS 27 Aug 17:21:01 17:24:41 26° 95° (E) 17:28:20 437.465
ISS 27 Aug 17:23:56 17:26:05 16° 228° (SW) 17:28:13 145.825
NOAA 18 27 Aug 17:46:15 17:50:02 19° 60° (ENE) 17:53:49 137.9125
CUBESAT XI-V 27 Aug 18:07:28 18:11:34 29° 95° (E) 18:15:38 437.345
Cosmos 2491 27 Aug 18:16:04 18:23:39 35° 84° (E) 18:31:17 435.465 / 435.565
KKS-1 27 Aug 18:20:40 18:24:45 35° 291° (WNW) 18:28:47 437.445
MOZHAYETS 4 27 Aug 18:25:24 18:29:10 26° 293° (WNW) 18:32:55
YUBILEINY 27 Aug 18:34:00 18:42:51 85° 82° (E) 18:51:34 435.215
GOMX 1 27 Aug 18:34:10 18:39:00 46° 71° (ENE) 18:44:08 467.674
Cubesat XI-IV 27 Aug 18:34:12 18:39:20 50° 70° (ENE) 18:44:29 437.490
HORYU 2 27 Aug 18:41:48 18:45:27 25° 265° (W) 18:49:07 437.375
DOVE 4 27 Aug 18:42:21 18:46:40 27° 66° (ENE) 18:51:05 437.250
CUTE-I 27 Aug 18:45:58 18:51:14 64° 72° (ENE) 18:56:30 437.470
NOAA 15 27 Aug 18:47:45 18:53:00 84° 77° (ENE) 18:58:19 137.62
Cosmos 2504 27 Aug 18:54:25 19:01:12 40° 74° (ENE) 19:07:51 435.465 / 435.565
BEESAT 2 27 Aug 18:57:10 19:00:25 23° 46° (NE) 19:03:39 435.950
STARS 27 Aug 18:57:12 19:01:01 29° 292° (WNW) 19:04:48 437.465
BRITE-PL 27 Aug 18:57:31 19:02:12 51° 262° (W) 19:07:19 437.365/2234.400
LilacSat-2 27 Aug 19:07:00 19:10:51 78° 258° (WSW) 19:14:42 437.200
HO-68 27 Aug 19:11:14 19:16:47 25° 58° (ENE) 19:22:20 435.675
BEESAT 3 27 Aug 19:15:12 19:19:08 61° 55° (NE) 19:23:03 437.485
NOAA 18 27 Aug 19:24:40 19:30:10 65° 258° (WSW) 19:35:41 137.9125
CINEMA 3 27 Aug 19:24:53 19:28:34 21° 65° (ENE) 19:32:12 145.822/145.860
CUBESAT XI-V 27 Aug 19:44:48 19:48:53 30° 291° (WNW) 19:52:58 437.345
SEEDS 27 Aug 19:51:12 19:53:50 17° 65° (ENE) 19:56:28 437.485
CANX-2 27 Aug 20:10:57 20:14:56 43° 72° (ENE) 20:18:56 2200.000
Cosmos 2491 27 Aug 20:11:43 20:20:08 52° 285° (WNW) 20:28:39 435.465 / 435.565
GOMX 1 27 Aug 20:13:22 20:17:19 23° 269° (W) 20:21:27 467.674
Cubesat XI-IV 27 Aug 20:15:39 20:19:39 21° 267° (W) 20:23:42 437.490
CUTE 1.7 + AOD 2 27 Aug 20:17:04 20:21:03 43° 72° (ENE) 20:25:03 437.475
DOVE 4 27 Aug 20:19:18 20:24:07 40° 264° (W) 20:29:06 437.250
AAUSAT CUBESAT 2 27 Aug 20:22:12 20:25:09 19° 67° (ENE) 20:28:07 437.432
CUTE-I 27 Aug 20:28:25 20:31:43 16° 269° (W) 20:35:00 437.470
COMPASS 1 27 Aug 20:29:28 20:33:02 29° 70° (ENE) 20:36:37 437.405
NOAA 15 27 Aug 20:31:38 20:33:26 12° 271° (W) 20:35:15 137.62
YUBILEINY 27 Aug 20:32:42 20:38:27 20° 282° (WNW) 20:44:09 435.215
BEESAT 2 27 Aug 20:34:38 20:38:20 36° 244° (WSW) 20:42:00 435.950
PCSat 27 Aug 20:39:31 20:43:47 23° 45° (NE) 20:48:01 145.827
Cosmos 2504 27 Aug 20:48:02 20:54:25 35° 273° (W) 21:00:44 435.465 / 435.565
BEESAT 3 27 Aug 20:54:45 20:56:18 12° 251° (WSW) 20:57:49 437.485
HO-68 27 Aug 20:56:42 21:03:52 70° 256° (WSW) 21:11:05 435.675
CINEMA 3 27 Aug 21:00:28 21:05:19 49° 261° (W) 21:10:10 145.822/145.860
STRAND 1 27 Aug 21:02:09 21:07:17 87° 104° (ESE) 21:12:23 437.568
Oscar 11 27 Aug 21:03:40 21:07:03 23° 67° (ENE) 21:10:28 145.826/435.025
AIST 2 27 Aug 21:07:50 21:11:16 24° 46° (NE) 21:14:42 435.215
FUNcube-1 27 Aug 21:10:46 21:14:27 26° 69° (ENE) 21:18:05 145.935
UWE-3 27 Aug 21:16:45 21:21:11 51° 73° (ENE) 21:25:32 435.000/436.395/437.385
CUBEBUG 2 27 Aug 21:18:46 21:23:27 80° 76° (ENE) 21:28:03 437.445
AIST 1 27 Aug 21:25:04 21:29:30 90° 194° (SSW) 21:33:53
SEEDS 27 Aug 21:25:14 21:29:11 43° 261° (W) 21:33:10 437.485
ZACube-1 27 Aug 21:31:33 21:35:49 46° 73° (ENE) 21:40:01 437.345
CANX-2 27 Aug 21:48:25 21:51:00 16° 268° (W) 21:53:35 2200.000
CUTE 1.7 + AOD 2 27 Aug 21:54:34 21:57:07 16° 269° (W) 21:59:40 437.475
AAUSAT CUBESAT 2 27 Aug 21:56:38 22:00:24 35° 263° (W) 22:04:11 437.432
DELFI C3 27 Aug 22:00:21 22:03:59 37° 71° (ENE) 22:07:38 145.870
COMPASS 1 27 Aug 22:05:19 22:08:35 23° 266° (W) 22:11:53 437.405
HUMSAT D 27 Aug 22:18:27 22:22:05 30° 70° (ENE) 22:25:42 437.325/437.525
PCSat 27 Aug 22:22:15 22:27:37 62° 245° (WSW) 22:32:56 145.827
AUBIESAT-1 27 Aug 22:26:34 22:29:40 18° 59° (ENE) 22:32:46 437.475
M-CUBED/EXP-1 PRIME 27 Aug 22:31:30 22:35:15 24° 61° (ENE) 22:38:59 437.505
PRISM 27 Aug 22:38:24 22:42:35 73° 284° (WNW) 22:46:45 437.425
Oscar 11 27 Aug 22:39:11 22:43:02 31° 263° (W) 22:46:53 145.826/435.025
STRAND 1 27 Aug 22:43:33 22:45:42 13° 302° (WNW) 22:47:52 437.568
AIST 2 27 Aug 22:45:59 22:49:52 38° 244° (WSW) 22:53:44 435.215
FUNcube-1 27 Aug 22:46:43 22:50:35 29° 264° (W) 22:54:25 145.935
GONETS M04 27 Aug 22:49:27 22:56:56 29° 67° (ENE) 23:04:20
HO-68 27 Aug 22:51:04 22:52:47 11° 274° (W) 22:54:31 435.675
UWE-3 27 Aug 22:55:06 22:57:53 16° 268° (W) 23:00:38 435.000/436.395/437.385
CUBEBUG 2 27 Aug 22:59:51 23:00:33 10° 271° (W) 23:01:15 437.445
TIGRISAT 27 Aug 23:00:30 23:03:27 18° 93° (E) 23:06:23 435.000
ESTCUBE 1 27 Aug 23:00:34 23:03:24 17° 64° (ENE) 23:06:16 437.505/2401.250
ZACube-1 27 Aug 23:09:29 23:12:19 16° 268° (W) 23:15:07 437.345
AISAT 27 Aug 23:09:51 23:11:37 12° 61° (ENE) 23:13:23 437.250
UNISAT 6 27 Aug 23:28:20 23:32:22 39° 98° (E) 23:36:21 437.425
DELFI C3 27 Aug 23:36:30 23:38:58 16° 268° (W) 23:41:28 145.870
CUSAT 1 27 Aug 23:41:43 23:43:46 17° 86° (E) 23:46:06 437.405
Cosmos 2499 27 Aug 23:51:27 23:58:15 48° 76° (ENE) 00:05:05 435.465 / 435.565
O/OREOS (USA 219) 27 Aug 23:52:46 23:56:50 30° 59° (ENE) 00:00:53 437.305
HUMSAT D 27 Aug 23:54:27 23:57:43 22° 266° (W) 00:00:58 437.325/437.525
VELOX 1 27 Aug 23:54:38 23:58:34 32° 69° (ENE) 00:02:32 145.980
CUBEBUG 1 27 Aug 23:56:15 00:00:21 40° 71° (ENE) 00:04:30 437.445
SO-50 27 Aug 23:58:06 00:02:28 34° 115° (ESE) 00:06:48 436.795
AUBIESAT-1 27 Aug 23:59:07 00:03:40 57° 255° (WSW) 00:08:15 437.475
QB50P1 28 Aug 00:02:14 00:04:07 13° 91° (E) 00:05:59 145.935-145.965
M-CUBED/EXP-1 PRIME 28 Aug 00:05:03 00:09:28 41° 257° (WSW) 00:13:57 437.505
ANTELSAT 28 Aug 00:05:09 00:09:28 81° 282° (WNW) 00:13:42 437.575/2403.000
DX 1 28 Aug 00:11:34 00:15:29 33° 69° (ENE) 00:19:26 434.975-435.025
POPSAT HIP 1 28 Aug 00:11:36 00:14:14 16° 92° (E) 00:16:51 437.405
SPROUT 28 Aug 00:13:57 00:17:31 26° 68° (ENE) 00:21:05 437.525
50 SAT 28 Aug 00:23:05 00:26:37 62° 75° (ENE) 00:30:10 437.505
ESTCUBE 1 28 Aug 00:35:28 00:39:49 50° 260° (W) 00:44:12 437.505/2401.250
TIGRISAT 28 Aug 00:36:20 00:40:19 38° 289° (WNW) 00:44:15 435.000
DUCHIFAT 1 28 Aug 00:38:23 00:42:01 28° 96° (E) 00:45:37 145.980
DANDE 28 Aug 00:39:37 00:41:38 20° 92° (E) 00:43:45 436.750
QB50P2 28 Aug 00:41:02 00:44:58 36° 98° (E) 00:48:51 145.880/145.840
AISAT 28 Aug 00:43:01 00:47:28 73° 258° (WSW) 00:51:58 437.250
POLYITAN 1 28 Aug 00:43:33 00:47:28 37° 98° (E) 00:51:21 437.675
GONETS M04 28 Aug 00:45:40 00:54:23 64° 268° (W) 01:03:03
UKube-1 28 Aug 00:51:20 00:55:39 71° 74° (ENE) 00:59:58 .
NANOSAT C BR1 28 Aug 00:51:59 00:56:01 43° 99° (E) 00:59:59 145.865
UNISAT 6 28 Aug 01:05:47 01:08:49 19° 295° (WNW) 01:11:48 437.425
JAS-2 28 Aug 01:12:21 01:18:53 45° 98° (E) 01:26:03 435.910
CUSAT 1 28 Aug 01:23:35 01:25:41 17° 294° (WNW) 01:28:05 437.405
VELOX 1 28 Aug 01:31:27 01:35:03 24° 265° (W) 01:38:41 145.980
O/OREOS (USA 219) 28 Aug 01:32:14 01:36:10 28° 257° (WSW) 01:40:04 437.305
BUGSAT 1 28 Aug 01:32:43 01:36:45 48° 99° (E) 01:40:41 437.445
RS-15 28 Aug 01:33:10 01:43:49 47° 109° (ESE) 01:55:01 29.354- 29.394
CUBEBUG 1 28 Aug 01:33:39 01:36:47 19° 267° (W) 01:39:57 437.445
QB50P1 28 Aug 01:36:05 01:40:13 55° 287° (WNW) 01:44:19 145.935-145.965
SO-50 28 Aug 01:38:31 01:42:55 34° 312° (NW) 01:47:18 436.795
Cosmos 2499 28 Aug 01:45:10 01:51:00 29° 275° (W) 01:56:53 435.465 / 435.565
POPSAT HIP 1 28 Aug 01:46:14 01:50:14 43° 288° (WNW) 01:54:12 437.405
SWISSCUBE 28 Aug 01:46:28 01:49:04 15° 61° (ENE) 01:51:41 437.505
DX 1 28 Aug 01:48:17 01:51:43 22° 265° (W) 01:55:11 434.975-435.025
SPROUT 28 Aug 01:49:37 01:53:21 28° 264° (W) 01:57:07 437.525
